Location: Quebec
(46.8000°N, 71.2500°W)
Time: 16:56:18
(UTC-04:00)

Vanguard 2 - Visible Passes

Search period start: 23 October 2017 00:00
Search period end: 02 November 2017 00:00
Orbit: 553 x 2939 km, 32.9° (Epoch: 22 October)

Date Brightness Start Highest point End Pass type
(mag) Time Alt. Az. Time Alt. Az. Time Alt. Az.
23 Oct 11.9 05:32:53 10° S 05:42:38 18° SE 05:51:09 10° ESE visible
24 Oct 11.8 05:48:24 10° SSW 06:00:26 23° SSE 06:10:33 10° ESE visible
25 Oct 12.0 04:04:28 10° SSE 04:08:35 11° SE 04:12:34 10° ESE visible
25 Oct 11.6 06:04:42 10° SSW 06:18:15 29° SSE 06:29:22 10° ESE visible
26 Oct 11.9 04:17:02 10° S 04:26:10 16° SE 04:34:46 10° ESE visible
26 Oct 11.4 06:21:28 10° SSW 06:36:06 34° SSE 06:47:52 10° E visible
27 Oct 11.7 04:32:07 10° S 04:43:47 22° SE 04:54:37 10° ESE visible
27 Oct 11.2 06:38:36 10° SW 06:54:00 39° SSE 07:06:09 10° ESE visible
28 Oct 11.5 04:48:08 10° SSW 05:01:28 27° SSE 05:13:40 10° E visible
29 Oct 11.8 03:02:39 10° SSE 03:09:39 14° SE 03:16:41 10° ESE visible
29 Oct 11.4 05:04:43 10° SSW 05:19:11 33° SSE 05:32:19 10° E visible
30 Oct 11.6 03:17:03 10° S 03:27:05 19° SE 03:37:25 10° ESE visible
30 Oct 11.2 05:21:41 10° SW 05:36:58 38° SSE 05:50:44 10° E visible
31 Oct 11.5 03:34:47 14° S 03:44:35 24° SE 03:56:54 10° E visible
31 Oct 11.1 05:38:58 10° SW 05:54:49 42° SSE 06:08:58 10° E visible
01 Nov 11.3 03:52:25 18° S 04:02:09 30° SSE 04:15:47 10° E visible
01 Nov 11.0 05:56:28 10° SW 06:12:42 46° SSE 06:27:05 10° ESE visible
